RYR6ZK EPKK-EGSS

Flight info

Callsign RYR6ZK
Flight time N/A
Altitude 36000
Route OMFOL T738 EKSEK DCT NAROX DCT KUMER DCT NOGRO M40 RINIS
Aircraft B738/M-SDE2E3FGHIRWXY/LB1

Departure

Time 2026-05-05 15:56
Airport Kraków John Paul II International Airport (EPKK)

Arrival

Time N/A
Airport London Stansted Airport (EGSS)
Time Latitude Longitude Altitude Speed Heading
2026-05-05 15:16 50.07447 19.79691 799 ft 0 kts 258°
2026-05-05 15:16 50.07447 19.79686 799 ft 0 kts 258°
2026-05-05 15:44 50.07450 19.79708 799 ft 4 kts 258°
2026-05-05 15:44 50.07454 19.79740 799 ft 4 kts 272°
2026-05-05 15:45 50.07445 19.79766 799 ft 4 kts 343°
2026-05-05 15:45 50.07421 19.79775 799 ft 3 kts 348°
2026-05-05 15:45 50.07417 19.79776 799 ft 2 kts 348°
2026-05-05 15:48 50.07422 19.79774 799 ft 2 kts 348°
2026-05-05 15:48 50.07450 19.79765 799 ft 6 kts 348°
2026-05-05 15:49 50.07504 19.79747 799 ft 10 kts 348°
2026-05-05 15:49 50.07586 19.79720 799 ft 14 kts 348°
2026-05-05 15:49 50.07684 19.79725 799 ft 15 kts 47°
2026-05-05 15:49 50.07704 19.79803 799 ft 0 kts 74°
2026-05-05 15:50 50.07704 19.79811 799 ft 2 kts 85°
2026-05-05 15:51 50.07697 19.79852 799 ft 6 kts 121°
2026-05-05 15:51 50.07653 19.79883 799 ft 8 kts 167°
2026-05-05 15:51 50.07609 19.79946 799 ft 10 kts 99°
2026-05-05 15:51 50.07623 19.80068 799 ft 13 kts 77°
2026-05-05 15:52 50.07644 19.80217 799 ft 16 kts 78°
2026-05-05 15:52 50.07674 19.80366 799 ft 13 kts 45°
2026-05-05 15:52 50.07769 19.80362 799 ft 15 kts 348°
2026-05-05 15:52 50.07831 19.80341 799 ft 0 kts 348°
2026-05-05 15:54 50.07837 19.80339 799 ft 3 kts 348°
2026-05-05 15:54 50.07871 19.80328 799 ft 7 kts 348°
2026-05-05 15:54 50.07935 19.80306 799 ft 11 kts 348°
2026-05-05 15:55 50.08009 19.80248 799 ft 13 kts 298°
2026-05-05 15:55 50.08007 19.80163 800 ft 0 kts 257°
2026-05-05 15:56 50.07980 19.79974 800 ft 51 kts 258°
2026-05-05 15:56 50.07850 19.79034 800 ft 122 kts 258°
2026-05-05 15:56 50.07632 19.77455 839 ft 174 kts 258°
2026-05-05 15:56 50.07401 19.75608 1648 ft 166 kts 256°
2026-05-05 15:57 50.07170 19.73912 2633 ft 158 kts 252°
2026-05-05 15:57 50.06915 19.72187 3141 ft 173 kts 253°
2026-05-05 15:57 50.06626 19.70211 3338 ft 199 kts 253°
2026-05-05 15:57 50.06308 19.67996 3530 ft 221 kts 254°
2026-05-05 15:58 50.05959 19.65554 3830 ft 242 kts 253°
2026-05-05 15:58 50.05583 19.62916 4378 ft 253 kts 255°
2026-05-05 15:58 50.05206 19.60219 5144 ft 257 kts 253°
2026-05-05 15:58 50.04828 19.57531 5942 ft 258 kts 254°
2026-05-05 15:59 50.04444 19.54805 6710 ft 259 kts 255°
2026-05-05 15:59 50.04079 19.52222 7345 ft 264 kts 254°
2026-05-05 15:59 50.03677 19.49392 8013 ft 268 kts 255°
2026-05-05 15:59 50.03273 19.46555 8745 ft 270 kts 255°
2026-05-05 16:00 50.02865 19.43687 9453 ft 273 kts 257°
2026-05-05 16:00 50.02850 19.40711 10083 ft 282 kts 278°
2026-05-05 16:00 50.03493 19.37696 10293 ft 307 kts 289°
2026-05-05 16:00 50.04354 19.34581 10464 ft 327 kts 291°
2026-05-05 16:01 50.05308 19.31263 10762 ft 342 kts 291°
2026-05-05 16:01 50.06291 19.27852 11330 ft 347 kts 290°
2026-05-05 16:01 50.07272 19.24413 11991 ft 349 kts 290°
2026-05-05 16:01 50.08255 19.20926 12636 ft 353 kts 290°
2026-05-05 16:02 50.09240 19.17393 13296 ft 357 kts 289°
2026-05-05 16:02 50.10231 19.13818 13941 ft 361 kts 289°
2026-05-05 16:02 50.11227 19.10209 14544 ft 365 kts 289°
2026-05-05 16:02 50.12231 19.06562 15153 ft 369 kts 289°
2026-05-05 16:03 50.13248 19.02863 15782 ft 372 kts 289°
2026-05-05 16:03 50.14272 18.99130 16419 ft 376 kts 290°
2026-05-05 16:03 50.15286 18.95428 17026 ft 379 kts 290°
2026-05-05 16:03 50.16333 18.91605 17645 ft 383 kts 290°
2026-05-05 16:04 50.17384 18.87755 18217 ft 387 kts 290°
2026-05-05 16:04 50.18435 18.83898 18773 ft 389 kts 290°
2026-05-05 16:04 50.19495 18.79999 19346 ft 390 kts 290°
2026-05-05 16:04 50.20560 18.76082 19913 ft 392 kts 290°
2026-05-05 16:05 50.21628 18.72147 20416 ft 395 kts 291°
2026-05-05 16:05 50.22703 18.68178 20919 ft 398 kts 291°
2026-05-05 16:05 50.23778 18.64173 21462 ft 400 kts 290°
2026-05-05 16:05 50.24835 18.60151 21942 ft 403 kts 290°
2026-05-05 16:06 50.25899 18.56073 22454 ft 405 kts 290°
2026-05-05 16:06 50.26963 18.51995 22968 ft 407 kts 290°
2026-05-05 16:06 50.28022 18.47937 23364 ft 411 kts 291°
2026-05-05 16:06 50.29106 18.43781 23800 ft 412 kts 290°
2026-05-05 16:07 50.30195 18.39609 24175 ft 415 kts 290°
2026-05-05 16:07 50.31288 18.35422 24527 ft 418 kts 290°
2026-05-05 16:07 50.32388 18.31209 24945 ft 419 kts 291°
2026-05-05 16:07 50.33491 18.26978 25309 ft 421 kts 290°
2026-05-05 16:08 50.34594 18.22733 25698 ft 422 kts 290°
2026-05-05 16:08 50.35706 18.18451 26042 ft 425 kts 290°
2026-05-05 16:08 50.36818 18.14154 26404 ft 427 kts 290°
2026-05-05 16:08 50.37934 18.09835 26739 ft 429 kts 290°
2026-05-05 16:09 50.39054 18.05490 27049 ft 431 kts 290°
2026-05-05 16:09 50.40177 18.01129 27384 ft 433 kts 290°
2026-05-05 16:09 50.41306 17.96731 27699 ft 435 kts 290°
2026-05-05 16:09 50.42439 17.92314 28022 ft 437 kts 290°
2026-05-05 16:10 50.43572 17.87890 28328 ft 439 kts 290°
2026-05-05 16:10 50.44713 17.83423 28640 ft 441 kts 290°
2026-05-05 16:10 50.45878 17.78958 28942 ft 443 kts 292°
2026-05-05 16:10 50.47129 17.74525 29239 ft 444 kts 293°
2026-05-05 16:11 50.48407 17.70158 29572 ft 445 kts 293°
2026-05-05 16:11 50.52244 17.57047 30849 ft 436 kts 293°
2026-05-05 16:12 50.53496 17.52698 31205 ft 435 kts 292°
2026-05-05 16:12 50.55975 17.44013 31877 ft 432 kts 292°
2026-05-05 16:13 50.59617 17.31175 32935 ft 427 kts 292°
2026-05-05 16:13 50.60818 17.26924 33256 ft 426 kts 292°
2026-05-05 16:13 50.62017 17.22680 33593 ft 424 kts 292°
2026-05-05 16:14 50.64164 17.15053 34102 ft 422 kts 292°
2026-05-05 16:14 50.66431 17.06976 34492 ft 422 kts 292°
2026-05-05 16:15 50.68703 16.98858 34967 ft 421 kts 292°
2026-05-05 16:15 50.69056 16.97593 35017 ft 421 kts 292°
2026-05-05 16:16 50.69335 16.96593 35067 ft 421 kts 292°
2026-05-05 16:17 50.70877 16.91027 35328 ft 421 kts 291°
2026-05-05 16:18 50.73153 16.82647 35729 ft 420 kts 291°
2026-05-05 16:18 50.74262 16.78538 35760 ft 423 kts 291°
2026-05-05 16:19 50.77509 16.66488 35772 ft 418 kts 291°
2026-05-05 16:19 50.80819 16.54161 35785 ft 414 kts 291°
2026-05-05 16:20 50.85139 16.37972 35790 ft 412 kts 291°
2026-05-05 16:22 50.90580 16.17424 35802 ft 415 kts 290°
2026-05-05 16:23 50.95246 16.02752 35806 ft 421 kts 301°
2026-05-05 16:23 51.00165 15.91319 35807 ft 423 kts 301°
2026-05-05 16:24 51.03467 15.83495 35804 ft 424 kts 301°
2026-05-05 16:25 51.08338 15.71831 35809 ft 424 kts 301°
2026-05-05 16:25 51.12446 15.61086 35815 ft 420 kts 290°
2026-05-05 16:26 51.14027 15.52142 35823 ft 415 kts 279°
2026-05-05 16:26 51.15106 15.43180 35814 ft 414 kts 279°
2026-05-05 16:27 51.16215 15.34106 35812 ft 413 kts 279°
2026-05-05 16:27 51.17334 15.25112 35796 ft 412 kts 279°
2026-05-05 16:28 51.18450 15.16133 35808 ft 412 kts 279°
2026-05-05 16:28 51.19556 15.07179 35813 ft 412 kts 279°
2026-05-05 16:29 51.19612 15.06724 35813 ft 412 kts 279°
2026-05-05 16:29 51.19757 15.05541 35812 ft 412 kts 279°
2026-05-05 16:30 51.19794 15.05243 35812 ft 412 kts 279°
2026-05-05 16:30 51.20135 15.02460 35795 ft 412 kts 279°
2026-05-05 16:31 51.21049 14.94094 35811 ft 411 kts 277°
2026-05-05 16:31 51.21817 14.85711 35813 ft 411 kts 276°
2026-05-05 16:32 51.22347 14.79824 35812 ft 411 kts 276°
2026-05-05 16:32 51.23071 14.71871 35811 ft 412 kts 276°
2026-05-05 16:33 51.23828 14.63632 35816 ft 412 kts 276°
2026-05-05 16:33 51.24622 14.54994 35802 ft 413 kts 276°
2026-05-05 16:34 51.25437 14.46077 35815 ft 413 kts 276°
2026-05-05 16:34 51.26260 14.36991 35802 ft 413 kts 276°
2026-05-05 16:35 51.27067 14.28002 35810 ft 413 kts 276°
2026-05-05 16:35 51.27874 14.18927 35820 ft 413 kts 276°
2026-05-05 16:36 51.28680 14.09787 35822 ft 413 kts 276°
2026-05-05 16:36 51.29444 14.01039 35806 ft 413 kts 276°
2026-05-05 16:37 51.29931 13.95423 35818 ft 412 kts 276°
2026-05-05 16:37 51.29985 13.94792 35818 ft 412 kts 276°
2026-05-05 16:38 51.30078 13.93716 35804 ft 412 kts 276°
2026-05-05 16:38 51.30248 13.91748 35798 ft 412 kts 275°
2026-05-05 16:39 51.30276 13.91420 35796 ft 412 kts 276°
2026-05-05 16:39 51.30389 13.90124 35791 ft 412 kts 276°
2026-05-05 16:40 51.30664 13.86982 35791 ft 412 kts 276°
2026-05-05 16:40 51.31120 13.81644 35806 ft 412 kts 276°
2026-05-05 16:41 51.31881 13.72633 35814 ft 411 kts 275°
2026-05-05 16:41 51.32563 13.64499 35818 ft 411 kts 275°
2026-05-05 16:42 51.33306 13.55583 35803 ft 410 kts 275°
2026-05-05 16:42 51.34060 13.46440 35813 ft 410 kts 275°
2026-05-05 16:43 51.34797 13.37429 35830 ft 409 kts 275°
2026-05-05 16:43 51.35414 13.29808 35820 ft 409 kts 275°
2026-05-05 16:44 51.36122 13.20988 35814 ft 409 kts 275°
2026-05-05 16:44 51.36810 13.12344 35817 ft 408 kts 275°
2026-05-05 16:45 51.37513 13.03409 35826 ft 408 kts 275°
2026-05-05 16:45 51.38197 12.94638 35841 ft 408 kts 275°
2026-05-05 16:46 51.38869 12.85938 35820 ft 408 kts 275°
2026-05-05 16:46 51.39553 12.76980 35829 ft 408 kts 274°
2026-05-05 16:47 51.40238 12.67933 35815 ft 408 kts 274°
2026-05-05 16:47 51.40915 12.58890 35826 ft 408 kts 274°
2026-05-05 16:48 51.41579 12.49924 35808 ft 409 kts 274°
2026-05-05 16:48 51.42243 12.40863 35807 ft 409 kts 274°
2026-05-05 16:49 51.42885 12.32001 35807 ft 409 kts 274°
2026-05-05 16:49 51.43543 12.22829 35808 ft 409 kts 274°
2026-05-05 16:50 51.44109 12.14847 35804 ft 409 kts 274°
2026-05-05 16:50 51.44742 12.05832 35805 ft 410 kts 274°
2026-05-05 16:51 51.45372 11.96756 35810 ft 410 kts 274°
2026-05-05 16:51 51.45992 11.87714 35815 ft 410 kts 273°
2026-05-05 16:52 51.46611 11.78594 35836 ft 410 kts 273°
2026-05-05 16:52 51.47222 11.69492 35836 ft 410 kts 273°
2026-05-05 16:53 51.47819 11.60469 35839 ft 410 kts 273°
2026-05-05 16:53 51.48414 11.51382 35839 ft 410 kts 273°
2026-05-05 16:54 51.49006 11.42232 35836 ft 410 kts 273°
2026-05-05 16:54 51.49568 11.33448 35842 ft 410 kts 273°
2026-05-05 16:55 51.49652 11.32110 35834 ft 410 kts 273°
2026-05-05 16:55 51.49837 11.29179 35836 ft 410 kts 273°
2026-05-05 16:56 51.49856 11.28877 35833 ft 410 kts 273°
2026-05-05 16:56 51.49910 11.28034 35833 ft 410 kts 273°
2026-05-05 16:57 51.49992 11.26725 35834 ft 409 kts 273°
2026-05-05 16:57 51.50125 11.24635 35840 ft 409 kts 273°
2026-05-05 16:58 51.50177 11.23820 35834 ft 409 kts 273°
2026-05-05 16:58 51.50460 11.18918 35840 ft 409 kts 272°
2026-05-05 16:59 51.50794 11.13486 35838 ft 409 kts 273°
2026-05-05 16:59 51.50827 11.12963 35839 ft 409 kts 273°
2026-05-05 17:00 51.51116 11.08385 35842 ft 409 kts 273°
2026-05-05 17:00 51.51641 10.99966 35844 ft 410 kts 273°
2026-05-05 17:01 51.52192 10.90912 35826 ft 410 kts 272°
2026-05-05 17:01 51.52738 10.81745 35834 ft 406 kts 272°
2026-05-05 17:02 51.53265 10.72754 35840 ft 404 kts 272°
2026-05-05 17:02 51.53782 10.63826 35840 ft 402 kts 272°
2026-05-05 17:03 51.54473 10.54902 35839 ft 403 kts 275°
2026-05-05 17:03 51.55308 10.45960 35840 ft 405 kts 275°
2026-05-05 17:04 51.55976 10.38709 35846 ft 406 kts 275°
2026-05-05 17:04 51.56797 10.29496 35838 ft 409 kts 275°
2026-05-05 17:05 51.57581 10.20481 35838 ft 412 kts 275°
2026-05-05 17:05 51.58368 10.11283 35840 ft 414 kts 275°
2026-05-05 17:06 51.59151 10.02051 35834 ft 416 kts 275°
2026-05-05 17:06 51.59922 9.92872 35835 ft 417 kts 274°
2026-05-05 17:07 51.60691 9.83626 35828 ft 418 kts 274°
2026-05-05 17:07 51.61458 9.74317 35818 ft 417 kts 274°
2026-05-05 17:08 51.62206 9.65152 35826 ft 416 kts 274°
2026-05-05 17:08 51.62957 9.55844 35817 ft 415 kts 274°
2026-05-05 17:09 51.63694 9.46627 35815 ft 414 kts 274°
2026-05-05 17:09 51.64417 9.37496 35816 ft 413 kts 274°
2026-05-05 17:10 51.65131 9.28380 35818 ft 412 kts 274°
2026-05-05 17:10 51.65832 9.19329 35820 ft 412 kts 274°
2026-05-05 17:11 51.66535 9.10162 35820 ft 412 kts 274°
2026-05-05 17:11 51.67228 9.01036 35828 ft 412 kts 274°